Time,TemperatureF,DewpointF,PressureIn,WindDirection,WindDirectionDegrees,WindSpeedMPH,WindSpeedGustMPH,Humidity,HourlyPrecipIn,Conditions,Clouds,dailyrainin,SoftwareType,DateUTC
2013-07-19 00:01:00,67.5,66.0,30.25,SSE,160,0.0,0.0,96,0.00,,,0.00,weatherlink.com 1.10,2013-07-19 04:01:00,
2013-07-19 00:16:00,67.2,66.0,30.24,SSE,160,0.0,0.0,96,0.00,,,0.00,weatherlink.com 1.10,2013-07-19 04:16:00,
2013-07-19 00:31:00,67.1,66.0,30.24,SSE,162,0.0,0.0,97,0.00,,,0.00,weatherlink.com 1.10,2013-07-19 04:31:00,
2013-07-19 00:46:00,67.1,66.0,30.23,SSE,160,0.0,0.0,97,0.00,,,0.00,weatherlink.com 1.10,2013-07-19 04:46:00,
2013-07-19 01:01:00,67.0,66.0,30.23,SSE,161,0.0,0.0,97,0.00,,,0.00,weatherlink.com 1.10,2013-07-19 05:01:00,
2013-07-19 01:16:00,66.7,66.0,30.23,SSE,161,0.0,0.0,97,0.00,,,0.00,weatherlink.com 1.10,2013-07-19 05:16:00,
2013-07-19 01:31:00,66.8,66.0,30.23,SSE,162,0.0,0.0,97,0.00,,,0.00,weatherlink.com 1.10,2013-07-19 05:31:00,
2013-07-19 01:46:00,66.7,66.0,30.22,SSE,162,0.0,0.0,97,0.00,,,0.00,weatherlink.com 1.10,2013-07-19 05:46:00,
2013-07-19 02:01:00,66.7,66.0,30.22,SSE,161,0.0,0.0,97,0.00,,,0.00,weatherlink.com 1.10,2013-07-19 06:01:00,
2013-07-19 02:17:00,66.5,66.0,30.21,SSE,160,0.0,0.0,97,0.00,,,0.00,weatherlink.com 1.10,2013-07-19 06:17:00,
2013-07-19 02:32:00,66.3,66.0,30.20,SSE,161,0.0,0.0,97,0.00,,,0.00,weatherlink.com 1.10,2013-07-19 06:32:00,
2013-07-19 02:47:00,66.2,66.0,30.20,SSE,160,0.0,0.0,98,0.00,,,0.00,weatherlink.com 1.10,2013-07-19 06:47:00,
2013-07-19 03:02:00,66.4,66.0,30.20,SSE,160,0.0,0.0,98,0.00,,,0.00,weatherlink.com 1.10,2013-07-19 07:02:00,
2013-07-19 03:17:00,66.3,66.0,30.20,SSE,161,0.0,0.0,97,0.00,,,0.00,weatherlink.com 1.10,2013-07-19 07:17:00,
2013-07-19 03:32:00,66.2,65.0,30.20,SSE,161,0.0,0.0,97,0.00,,,0.00,weatherlink.com 1.10,2013-07-19 07:32:00,
2013-07-19 03:47:00,66.1,66.0,30.20,SSE,160,0.0,0.0,98,0.00,,,0.00,weatherlink.com 1.10,2013-07-19 07:47:00,
2013-07-19 04:02:00,65.8,65.0,30.20,SSE,162,0.0,0.0,97,0.00,,,0.00,weatherlink.com 1.10,2013-07-19 08:02:00,
2013-07-19 04:17:00,65.4,65.0,30.19,SSE,162,0.0,0.0,98,0.00,,,0.00,weatherlink.com 1.10,2013-07-19 08:17:00,
2013-07-19 04:32:00,65.1,65.0,30.19,SSE,162,0.0,0.0,98,0.00,,,0.00,weatherlink.com 1.10,2013-07-19 08:32:00,
2013-07-19 04:47:00,64.7,64.0,30.19,SSE,162,0.0,0.0,98,0.00,,,0.00,weatherlink.com 1.10,2013-07-19 08:47:00,
2013-07-19 05:02:00,64.8,64.0,30.19,SSE,162,0.0,0.0,98,0.00,,,0.00,weatherlink.com 1.10,2013-07-19 09:02:00,
2013-07-19 05:17:00,64.8,64.0,30.19,SSE,162,0.0,0.0,98,0.00,,,0.00,weatherlink.com 1.10,2013-07-19 09:17:00,
2013-07-19 05:32:00,65.0,65.0,30.19,SSE,162,0.0,0.0,98,0.00,,,0.00,weatherlink.com 1.10,2013-07-19 09:32:00,
2013-07-19 05:47:00,65.0,65.0,30.19,SSE,162,0.0,0.0,98,0.00,,,0.00,weatherlink.com 1.10,2013-07-19 09:47:00,
2013-07-19 06:02:00,65.1,65.0,30.19,SSE,162,0.0,0.0,98,0.00,,,0.00,weatherlink.com 1.10,2013-07-19 10:02:00,
2013-07-19 06:17:00,65.2,65.0,30.19,SSE,162,0.0,0.0,98,0.00,,,0.00,weatherlink.com 1.10,2013-07-19 10:17:00,
2013-07-19 06:32:00,65.1,65.0,30.20,SSE,162,0.0,0.0,98,0.00,,,0.00,weatherlink.com 1.10,2013-07-19 10:32:00,
2013-07-19 06:47:00,65.2,65.0,30.20,SSE,162,0.0,0.0,98,0.00,,,0.00,weatherlink.com 1.10,2013-07-19 10:47:00,
2013-07-19 07:02:00,65.2,65.0,30.20,SSE,162,0.0,0.0,98,0.00,,,0.00,weatherlink.com 1.10,2013-07-19 11:02:00,
2013-07-19 07:18:00,65.0,65.0,30.20,SSE,162,0.0,0.0,98,0.00,,,0.00,weatherlink.com 1.10,2013-07-19 11:18:00,
2013-07-19 07:32:00,65.2,65.0,30.20,SSE,162,0.0,0.0,98,0.00,,,0.00,weatherlink.com 1.10,2013-07-19 11:32:00,
2013-07-19 07:47:00,65.2,65.0,30.21,SSE,162,0.0,0.0,98,0.00,,,0.00,weatherlink.com 1.10,2013-07-19 11:47:00,
2013-07-19 08:02:00,65.2,65.0,30.21,SSE,162,0.0,0.0,98,0.00,,,0.00,weatherlink.com 1.10,2013-07-19 12:02:00,
2013-07-19 08:17:00,65.6,65.0,30.21,SSE,162,0.0,0.0,98,0.00,,,0.00,weatherlink.com 1.10,2013-07-19 12:17:00,
2013-07-19 08:32:00,65.7,65.0,30.21,SSE,160,0.0,0.0,98,0.00,,,0.00,weatherlink.com 1.10,2013-07-19 12:32:00,
2013-07-19 08:47:00,66.2,66.0,30.22,SSE,160,0.0,0.0,98,0.00,,,0.00,weatherlink.com 1.10,2013-07-19 12:47:00,
2013-07-19 09:02:00,66.6,66.0,30.22,SSE,160,0.0,0.0,98,0.00,,,0.00,weatherlink.com 1.10,2013-07-19 13:02:00,
2013-07-19 09:17:00,67.0,67.0,30.23,SSE,161,0.0,0.0,98,0.00,,,0.00,weatherlink.com 1.10,2013-07-19 13:17:00,
2013-07-19 09:32:00,67.3,67.0,30.23,SSE,162,0.0,0.0,98,0.00,,,0.00,weatherlink.com 1.10,2013-07-19 13:32:00,
2013-07-19 09:47:00,67.5,67.0,30.23,SSE,159,0.0,0.0,97,0.00,,,0.00,weatherlink.com 1.10,2013-07-19 13:47:00,
2013-07-19 10:02:00,68.1,67.0,30.23,SSE,157,0.0,0.0,97,0.00,,,0.00,weatherlink.com 1.10,2013-07-19 14:02:00,
2013-07-19 10:17:00,68.4,67.0,30.23,SSE,156,0.0,0.0,96,0.00,,,0.00,weatherlink.com 1.10,2013-07-19 14:17:00,
2013-07-19 10:32:00,69.4,68.0,30.23,SSE,158,0.0,0.0,95,0.00,,,0.00,weatherlink.com 1.10,2013-07-19 14:32:00,
2013-07-19 10:47:00,70.4,68.0,30.23,SSE,163,0.0,0.0,93,0.00,,,0.00,weatherlink.com 1.10,2013-07-19 14:47:00,
2013-07-19 11:02:00,71.4,69.0,30.22,SSE,158,0.0,0.0,93,0.00,,,0.00,weatherlink.com 1.10,2013-07-19 15:02:00,
2013-07-19 11:17:00,72.1,69.0,30.22,SSE,159,0.0,0.0,91,0.00,,,0.00,weatherlink.com 1.10,2013-07-19 15:17:00,
2013-07-19 11:32:00,73.7,70.0,30.22,SSE,160,0.0,0.0,88,0.00,,,0.00,weatherlink.com 1.10,2013-07-19 15:32:00,
2013-07-19 11:47:00,75.3,71.0,30.22,SSE,156,0.0,0.0,85,0.00,,,0.00,weatherlink.com 1.10,2013-07-19 15:47:00,
2013-07-19 12:03:00,77.5,71.0,30.21,SSE,158,1.0,2.0,81,0.00,,,0.00,weatherlink.com 1.10,2013-07-19 16:03:00,
2013-07-19 12:18:00,78.3,70.0,30.21,SSE,158,0.0,3.0,76,0.00,,,0.00,weatherlink.com 1.10,2013-07-19 16:18:00,
2013-07-19 12:33:00,79.4,69.0,30.20,SSE,156,0.0,3.0,71,0.00,,,0.00,weatherlink.com 1.10,2013-07-19 16:33:00,
2013-07-19 12:48:00,80.1,70.0,30.19,SSE,164,0.0,2.0,72,0.00,,,0.00,weatherlink.com 1.10,2013-07-19 16:48:00,
2013-07-19 13:03:00,81.7,71.0,30.18,SSE,164,0.0,2.0,71,0.00,,,0.00,weatherlink.com 1.10,2013-07-19 17:03:00,
2013-07-19 13:18:00,82.8,73.0,30.17,SSE,158,1.0,2.0,73,0.00,,,0.00,weatherlink.com 1.10,2013-07-19 17:18:00,
2013-07-19 13:33:00,82.0,72.0,30.17,South,171,2.0,3.0,72,0.00,,,0.00,weatherlink.com 1.10,2013-07-19 17:33:00,
2013-07-19 13:48:00,83.1,69.0,30.16,SSE,159,0.0,2.0,62,0.00,,,0.00,weatherlink.com 1.10,2013-07-19 17:48:00,
2013-07-19 14:03:00,82.9,69.0,30.15,SSE,159,1.0,3.0,63,0.00,,,0.00,weatherlink.com 1.10,2013-07-19 18:03:00,
2013-07-19 14:18:00,82.7,69.0,30.14,SSE,166,0.0,1.0,63,0.00,,,0.00,weatherlink.com 1.10,2013-07-19 18:18:00,
2013-07-19 14:33:00,83.3,70.0,30.14,SSE,166,0.0,1.0,65,0.00,,,0.00,weatherlink.com 1.10,2013-07-19 18:33:00,
2013-07-19 14:48:00,83.1,71.0,30.13,SSE,160,0.0,3.0,66,0.00,,,0.00,weatherlink.com 1.10,2013-07-19 18:48:00,
2013-07-19 15:03:00,83.2,71.0,30.13,SSE,167,0.0,1.0,67,0.00,,,0.00,weatherlink.com 1.10,2013-07-19 19:03:00,
2013-07-19 15:18:00,82.9,71.0,30.12,SSE,158,0.0,3.0,67,0.00,,,0.00,weatherlink.com 1.10,2013-07-19 19:18:00,
2013-07-19 15:33:00,82.8,72.0,30.11,SSE,158,0.0,1.0,70,0.00,,,0.00,weatherlink.com 1.10,2013-07-19 19:33:00,
2013-07-19 15:48:00,83.6,71.0,30.11,SSE,159,0.0,1.0,66,0.00,,,0.00,weatherlink.com 1.10,2013-07-19 19:48:00,
2013-07-19 16:03:00,82.9,68.0,30.09,SSE,160,0.0,0.0,62,0.00,,,0.00,weatherlink.com 1.10,2013-07-19 20:03:00,
2013-07-19 16:18:00,82.2,70.0,30.09,SSE,160,0.0,0.0,67,0.00,,,0.00,weatherlink.com 1.10,2013-07-19 20:18:00,
2013-07-19 16:33:00,81.4,67.0,30.09,SSE,159,1.0,2.0,61,0.00,,,0.00,weatherlink.com 1.10,2013-07-19 20:33:00,
2013-07-19 16:48:00,79.7,67.0,30.09,SSE,159,0.0,2.0,66,0.00,,,0.00,weatherlink.com 1.10,2013-07-19 20:48:00,
2013-07-19 17:03:00,78.8,68.0,30.08,SSE,159,0.0,2.0,69,0.00,,,0.00,weatherlink.com 1.10,2013-07-19 21:03:00,
2013-07-19 17:18:00,78.5,68.0,30.08,SSE,159,1.0,1.0,70,0.00,,,0.00,weatherlink.com 1.10,2013-07-19 21:18:00,
2013-07-19 17:33:00,77.9,69.0,30.08,SSE,160,0.0,2.0,74,0.00,,,0.00,weatherlink.com 1.10,2013-07-19 21:33:00,
2013-07-19 17:48:00,77.7,69.0,30.08,SSE,158,0.0,2.0,75,0.00,,,0.00,weatherlink.com 1.10,2013-07-19 21:48:00,
2013-07-19 18:03:00,77.1,69.0,30.08,SSE,158,0.0,2.0,77,0.00,,,0.00,weatherlink.com 1.10,2013-07-19 22:03:00,
2013-07-19 18:18:00,76.7,71.0,30.07,SSE,156,0.0,4.0,82,0.00,,,0.00,weatherlink.com 1.10,2013-07-19 22:18:00,
2013-07-19 18:33:00,76.0,70.0,30.07,SE,137,0.0,5.0,81,0.00,,,0.00,weatherlink.com 1.10,2013-07-19 22:33:00,
2013-07-19 18:48:00,75.7,69.0,30.08,SE,136,1.0,3.0,79,0.00,,,0.00,weatherlink.com 1.10,2013-07-19 22:48:00,
2013-07-19 19:03:00,75.7,70.0,30.09,SSE,160,0.0,1.0,81,0.00,,,0.00,weatherlink.com 1.10,2013-07-19 23:03:00,
2013-07-19 19:18:00,75.3,69.0,30.08,SE,129,4.0,4.0,81,0.00,,,0.00,weatherlink.com 1.10,2013-07-19 23:18:00,
2013-07-19 19:33:00,74.8,69.0,30.08,SE,136,0.0,3.0,83,0.00,,,0.00,weatherlink.com 1.10,2013-07-19 23:33:00,
2013-07-19 19:48:00,74.4,69.0,30.08,SE,135,0.0,1.0,83,0.00,,,0.00,weatherlink.com 1.10,2013-07-19 23:48:00,
2013-07-19 20:03:00,74.5,69.0,30.09,SE,146,0.0,1.0,83,0.00,,,0.00,weatherlink.com 1.10,2013-07-20 00:03:00,
2013-07-19 20:18:00,74.0,70.0,30.09,SE,145,0.0,0.0,86,0.00,,,0.00,weatherlink.com 1.10,2013-07-20 00:18:00,
2013-07-19 20:33:00,73.7,68.0,30.09,SSE,155,0.0,1.0,83,0.00,,,0.00,weatherlink.com 1.10,2013-07-20 00:33:00,
2013-07-19 20:48:00,73.1,68.0,30.10,SSE,155,0.0,1.0,85,0.00,,,0.00,weatherlink.com 1.10,2013-07-20 00:48:00,
2013-07-19 21:03:00,72.1,68.0,30.11,SSE,155,1.0,1.0,88,0.00,,,0.00,weatherlink.com 1.10,2013-07-20 01:03:00,
2013-07-19 21:18:00,71.3,67.0,30.10,SSE,155,1.0,1.0,87,0.00,,,0.00,weatherlink.com 1.10,2013-07-20 01:18:00,
2013-07-19 21:33:00,70.9,67.0,30.11,SSE,155,1.0,2.0,86,0.00,,,0.00,weatherlink.com 1.10,2013-07-20 01:33:00,
2013-07-19 21:48:00,70.5,67.0,30.12,SSE,155,0.0,1.0,87,0.00,,,0.00,weatherlink.com 1.10,2013-07-20 01:48:00,
2013-07-19 22:03:00,70.2,67.0,30.12,SSE,155,0.0,1.0,88,0.00,,,0.00,weatherlink.com 1.10,2013-07-20 02:03:00,
2013-07-19 22:18:00,69.9,67.0,30.12,SSE,155,0.0,1.0,89,0.00,,,0.00,weatherlink.com 1.10,2013-07-20 02:18:00,
2013-07-19 22:33:00,69.7,67.0,30.13,SSE,155,0.0,1.0,91,0.00,,,0.00,weatherlink.com 1.10,2013-07-20 02:33:00,
2013-07-19 22:48:00,69.5,66.0,30.13,SSE,155,1.0,1.0,89,0.00,,,0.00,weatherlink.com 1.10,2013-07-20 02:48:00,
2013-07-19 23:03:00,69.5,66.0,30.13,SSE,155,0.0,2.0,87,0.00,,,0.00,weatherlink.com 1.10,2013-07-20 03:03:00,
2013-07-19 23:19:00,69.6,66.0,30.13,SSE,155,0.0,1.0,89,0.00,,,0.00,weatherlink.com 1.10,2013-07-20 03:19:00,
2013-07-19 23:34:00,69.3,66.0,30.13,SSE,155,0.0,0.0,89,0.00,,,0.00,weatherlink.com 1.10,2013-07-20 03:34:00,
2013-07-19 23:49:00,69.1,66.0,30.14,SSE,155,0.0,0.0,90,0.00,,,0.00,weatherlink.com 1.10,2013-07-20 03:49:00,